This is the latest recevied weather packets stored in our database for station/object KI7MOQ. If no packets are shown the sender has not sent any weather packets the latest 10 day(s).
| Time | Temp. | Humidity | Pressure | Rain* | Wind** | Luminosity | Snow |
|---|---|---|---|---|---|---|---|
| 1777653367 | 15.56° C | 71% | 1019.6 hPa | 0 mm | - | 103 W/m² | - |
| 1777653065 | 15° C | 73% | 1019.8 hPa | 0 mm | - | 100 W/m² | - |
| 1777652761 | 15° C | 72% | 1019.7 hPa | 0 mm | - | 110 W/m² | - |
| 1777652458 | 15° C | 73% | 1019.6 hPa | 0 mm | - | 166 W/m² | - |
| 1777652155 | 15° C | 73% | 1019.5 hPa | 0 mm | - | 133 W/m² | - |
| 1777651851 | 15° C | 74% | 1019.6 hPa | 0 mm | - | 89 W/m² | - |
| 1777651548 | 15° C | 75% | 1019.9 hPa | 0 mm | - | 98 W/m² | - |
| 1777651245 | 15° C | 76% | 1019.9 hPa | 0 mm | - | 94 W/m² | - |
| 1777650942 | 14.44° C | 76% | 1019.8 hPa | 0 mm | - | 184 W/m² | - |
| 1777650639 | 14.44° C | 76% | 1019.8 hPa | 0 mm | - | 180 W/m² | - |
| 1777650336 | 15° C | 75% | 1019.7 hPa | 0 mm | - | 165 W/m² | - |
| 1777650032 | 13.89° C | 79% | 1019.8 hPa | 0 mm | - | 153 W/m² | - |
| 1777649725 | 13.89° C | 78% | 1019.7 hPa | 0 mm | - | 112 W/m² | - |
| 1777649421 | 13.89° C | 80% | 1019.8 hPa | 0 mm | - | 113 W/m² | - |
| 1777649118 | 13.33° C | 82% | 1019.7 hPa | 0 mm | - | 83 W/m² | - |
| 1777648815 | 12.78° C | 82% | 1019.6 hPa | 0 mm | - | 47 W/m² | - |
| 1777648512 | 12.78° C | 83% | 1019.5 hPa | 0 mm | - | 41 W/m² | - |
| 1777648208 | 12.78° C | 83% | 1019.7 hPa | 0 mm | - | 38 W/m² | - |
| 1777647898 | 12.22° C | 84% | 1019.6 hPa | 0 mm | - | 32 W/m² | - |
| 1777647595 | 11.67° C | 86% | 1019.6 hPa | 0 mm | - | 38 W/m² | - |
| 1777647291 | 11.67° C | 85% | 1019.6 hPa | 0 mm | - | 33 W/m² | - |
| 1777646989 | 11.67° C | 86% | 1019.3 hPa | 0 mm | - | 30 W/m² | - |
| 1777646685 | 11.11° C | 86% | 1019.6 hPa | 0 mm | - | 29 W/m² | - |
| 1777646381 | 11.11° C | 87% | 1019.5 hPa | 0 mm | - | 29 W/m² | - |
| 1777646077 | 10.56° C | 87% | 1019.3 hPa | 0 mm | - | 29 W/m² | - |
* Rain latest hour (hover to see other rain measurements)
** Current wind speed in m/s (hover to see current wind gust speed)